Time,TemperatureF,DewpointF,PressureIn,WindDirection,WindDirectionDegrees,WindSpeedMPH,WindSpeedGustMPH,Humidity,HourlyPrecipIn,Conditions,Clouds,dailyrainin,SoftwareType,DateUTC
2013-01-18 00:05:00,11.3,5.0,29.99,WNW,300,0.0,0.0,75,0.00,,,0.00,VWS V14.00,2013-01-18 05:05:00,
2013-01-18 00:08:00,11.3,5.0,29.98,WNW,300,0.0,0.0,75,0.00,,,0.00,VWS V14.00,2013-01-18 05:08:00,
2013-01-18 00:14:00,11.2,4.9,29.99,WNW,300,0.0,0.0,75,0.00,,,0.00,VWS V14.00,2013-01-18 05:14:00,
2013-01-18 00:17:00,11.2,5.0,30.00,WNW,300,0.0,0.0,76,0.00,,,0.00,VWS V14.00,2013-01-18 05:17:00,
2013-01-18 00:23:00,11.2,5.1,30.00,WNW,300,0.0,0.0,76,0.00,,,0.00,VWS V14.00,2013-01-18 05:23:00,
2013-01-18 00:29:00,10.9,4.9,30.02,WNW,300,0.0,0.0,76,0.00,,,0.00,VWS V14.00,2013-01-18 05:29:00,
2013-01-18 00:35:00,10.8,4.8,30.01,WNW,300,0.0,0.0,76,0.00,,,0.00,VWS V14.00,2013-01-18 05:35:00,
2013-01-18 00:41:00,10.7,4.7,30.01,WNW,300,0.0,0.0,76,0.00,,,0.00,VWS V14.00,2013-01-18 05:41:00,
2013-01-18 00:47:00,10.7,4.7,30.02,WNW,300,0.0,0.0,76,0.00,,,0.00,VWS V14.00,2013-01-18 05:47:00,
2013-01-18 00:53:00,10.6,4.7,30.02,WNW,300,0.0,0.0,76,0.00,,,0.00,VWS V14.00,2013-01-18 05:53:00,
2013-01-18 00:59:00,10.6,4.8,30.02,WNW,300,0.0,0.0,77,0.00,,,0.00,VWS V14.00,2013-01-18 05:59:00,
2013-01-18 01:05:00,10.5,4.8,30.01,WNW,300,0.0,0.0,77,0.00,,,0.00,VWS V14.00,2013-01-18 06:05:00,
2013-01-18 01:11:00,10.6,5.0,30.01,WNW,300,0.0,0.0,78,0.00,,,0.00,VWS V14.00,2013-01-18 06:11:00,
2013-01-18 01:17:00,10.5,4.9,30.02,WNW,300,0.0,0.0,78,0.00,,,0.00,VWS V14.00,2013-01-18 06:17:00,
2013-01-18 01:23:00,10.4,4.9,30.01,WNW,300,0.0,0.0,78,0.00,,,0.00,VWS V14.00,2013-01-18 06:23:00,
2013-01-18 01:29:00,10.2,4.7,30.01,WNW,300,0.0,0.0,78,0.00,,,0.00,VWS V14.00,2013-01-18 06:29:00,
2013-01-18 01:35:00,10.2,4.7,30.02,WNW,300,0.0,0.0,78,0.00,,,0.00,VWS V14.00,2013-01-18 06:35:00,
2013-01-18 01:41:00,10.0,4.5,30.00,WNW,300,0.0,0.0,78,0.00,,,0.00,VWS V14.00,2013-01-18 06:41:00,
2013-01-18 01:47:00,9.9,4.5,30.00,WNW,300,0.0,0.0,78,0.00,,,0.00,VWS V14.00,2013-01-18 06:47:00,
2013-01-18 01:53:00,9.8,4.5,30.01,WNW,300,0.0,0.0,79,0.00,,,0.00,VWS V14.00,2013-01-18 06:53:00,
2013-01-18 01:59:00,9.8,4.6,30.01,WNW,300,0.0,0.0,79,0.00,,,0.00,VWS V14.00,2013-01-18 06:59:00,
2013-01-18 02:05:00,9.6,4.4,30.01,WNW,300,0.0,0.0,79,0.00,,,0.00,VWS V14.00,2013-01-18 07:05:00,
2013-01-18 02:11:00,9.4,4.3,30.02,WNW,300,0.0,0.0,79,0.00,,,0.00,VWS V14.00,2013-01-18 07:11:00,
2013-01-18 02:17:00,9.3,4.3,30.04,WNW,300,0.0,0.0,80,0.00,,,0.00,VWS V14.00,2013-01-18 07:17:00,
2013-01-18 02:23:00,9.3,4.4,30.02,WNW,300,0.0,0.0,80,0.00,,,0.00,VWS V14.00,2013-01-18 07:23:00,
2013-01-18 02:29:00,9.2,4.3,30.03,WNW,300,0.0,0.0,80,0.00,,,0.00,VWS V14.00,2013-01-18 07:29:00,
2013-01-18 02:36:00,9.0,4.2,30.05,WNW,300,0.0,0.0,80,0.00,,,0.00,VWS V14.00,2013-01-18 07:36:00,
2013-01-18 02:42:00,8.8,4.0,30.05,WNW,300,0.0,0.0,80,0.00,,,0.00,VWS V14.00,2013-01-18 07:42:00,
2013-01-18 02:48:00,8.6,3.8,30.05,WNW,300,0.0,0.0,80,0.00,,,0.00,VWS V14.00,2013-01-18 07:48:00,
2013-01-18 02:54:00,8.3,3.5,30.05,WNW,300,0.0,0.0,80,0.00,,,0.00,VWS V14.00,2013-01-18 07:54:00,
2013-01-18 03:00:00,8.2,3.5,30.05,WNW,300,0.0,0.0,81,0.00,,,0.00,VWS V14.00,2013-01-18 08:00:00,
2013-01-18 03:06:00,8.2,3.6,30.06,WNW,300,0.0,0.0,81,0.00,,,0.00,VWS V14.00,2013-01-18 08:06:00,
2013-01-18 03:12:00,7.9,3.4,30.05,WNW,300,0.0,0.0,81,0.00,,,0.00,VWS V14.00,2013-01-18 08:12:00,
2013-01-18 03:18:00,7.7,3.3,30.04,WNW,300,0.0,0.0,82,0.00,,,0.00,VWS V14.00,2013-01-18 08:18:00,
2013-01-18 03:24:00,7.5,3.1,30.05,WNW,300,0.0,0.0,82,0.00,,,0.00,VWS V14.00,2013-01-18 08:24:00,
2013-01-18 03:30:00,7.4,3.1,30.06,WNW,300,0.0,0.0,82,0.00,,,0.00,VWS V14.00,2013-01-18 08:30:00,
2013-01-18 03:36:00,7.2,3.0,30.05,WNW,300,0.0,0.0,83,0.00,,,0.00,VWS V14.00,2013-01-18 08:36:00,
2013-01-18 03:42:00,7.0,2.9,30.04,WNW,300,0.0,0.0,83,0.00,,,0.00,VWS V14.00,2013-01-18 08:42:00,
2013-01-18 03:48:00,6.7,2.7,30.04,WNW,300,0.0,0.0,83,0.00,,,0.00,VWS V14.00,2013-01-18 08:48:00,
2013-01-18 03:54:00,6.5,2.6,30.05,WNW,300,0.0,0.0,84,0.00,,,0.00,VWS V14.00,2013-01-18 08:54:00,
2013-01-18 04:00:00,6.0,2.2,30.05,WNW,300,0.0,0.0,84,0.00,,,0.00,VWS V14.00,2013-01-18 09:00:00,
2013-01-18 04:06:00,5.9,2.3,30.06,WNW,300,0.0,0.0,85,0.00,,,0.00,VWS V14.00,2013-01-18 09:06:00,
2013-01-18 04:12:00,5.7,2.2,30.06,WNW,300,0.0,0.0,85,0.00,,,0.00,VWS V14.00,2013-01-18 09:12:00,
2013-01-18 04:18:00,5.6,2.1,30.06,WNW,300,0.0,0.0,85,0.00,,,0.00,VWS V14.00,2013-01-18 09:18:00,
2013-01-18 04:24:00,5.5,2.1,30.06,WNW,300,0.0,0.0,85,0.00,,,0.00,VWS V14.00,2013-01-18 09:24:00,
2013-01-18 04:30:00,5.4,2.1,30.06,WNW,300,0.0,0.0,86,0.00,,,0.00,VWS V14.00,2013-01-18 09:30:00,
2013-01-18 04:36:00,5.2,2.0,30.07,WNW,300,0.0,0.0,86,0.00,,,0.00,VWS V14.00,2013-01-18 09:36:00,
2013-01-18 04:42:00,5.1,2.0,30.07,WNW,300,0.0,0.0,87,0.00,,,0.00,VWS V14.00,2013-01-18 09:42:00,
2013-01-18 04:48:00,4.9,1.9,30.07,WNW,300,0.0,0.0,87,0.00,,,0.00,VWS V14.00,2013-01-18 09:48:00,
2013-01-18 04:54:00,4.6,1.6,30.08,WNW,300,0.0,0.0,87,0.00,,,0.00,VWS V14.00,2013-01-18 09:54:00,
2013-01-18 05:00:00,4.2,1.2,30.08,WNW,300,0.0,0.0,87,0.00,,,0.00,VWS V14.00,2013-01-18 10:00:00,
2013-01-18 05:06:00,3.9,1.0,30.08,WNW,300,0.0,0.0,87,0.00,,,0.00,VWS V14.00,2013-01-18 10:06:00,
2013-01-18 05:12:00,3.8,1.0,30.09,WNW,300,0.0,0.0,88,0.00,,,0.00,VWS V14.00,2013-01-18 10:12:00,
2013-01-18 05:18:00,3.5,0.8,30.09,WNW,300,0.0,0.0,88,0.00,,,0.00,VWS V14.00,2013-01-18 10:18:00,
2013-01-18 05:24:00,3.3,0.6,30.09,WNW,300,0.0,0.0,88,0.00,,,0.00,VWS V14.00,2013-01-18 10:24:00,
2013-01-18 05:30:00,3.1,0.5,30.09,WNW,300,0.0,0.0,89,0.00,,,0.00,VWS V14.00,2013-01-18 10:30:00,
2013-01-18 05:36:00,3.1,0.6,30.09,WNW,300,0.0,0.0,89,0.00,,,0.00,VWS V14.00,2013-01-18 10:36:00,
2013-01-18 05:42:00,2.9,0.5,30.09,WNW,300,0.0,0.0,89,0.00,,,0.00,VWS V14.00,2013-01-18 10:42:00,
2013-01-18 05:48:00,2.8,0.4,30.09,WNW,300,0.0,0.0,90,0.00,,,0.00,VWS V14.00,2013-01-18 10:48:00,
2013-01-18 05:54:00,2.7,0.4,30.09,WNW,300,0.0,0.0,90,0.00,,,0.00,VWS V14.00,2013-01-18 10:54:00,
2013-01-18 06:00:00,2.7,0.5,30.10,WNW,300,0.0,0.0,90,0.00,,,0.00,VWS V14.00,2013-01-18 11:00:00,
2013-01-18 06:06:00,2.6,0.4,30.10,WNW,300,0.0,0.0,90,0.00,,,0.00,VWS V14.00,2013-01-18 11:06:00,
2013-01-18 06:12:00,2.5,0.3,30.11,WNW,300,0.0,0.0,90,0.00,,,0.00,VWS V14.00,2013-01-18 11:12:00,
2013-01-18 06:19:00,2.1,-0.1,30.11,WNW,300,0.0,0.0,90,0.00,,,0.00,VWS V14.00,2013-01-18 11:19:00,
2013-01-18 06:25:00,2.0,-0.1,30.11,WNW,300,0.0,0.0,90,0.00,,,0.00,VWS V14.00,2013-01-18 11:25:00,
2013-01-18 06:31:00,2.0,-0.1,30.13,WNW,300,0.0,0.0,91,0.00,,,0.00,VWS V14.00,2013-01-18 11:31:00,
2013-01-18 06:37:00,1.7,-0.3,30.13,WNW,300,0.0,0.0,91,0.00,,,0.00,VWS V14.00,2013-01-18 11:37:00,
2013-01-18 06:43:00,1.7,-0.3,30.13,WNW,300,0.0,0.0,91,0.00,,,0.00,VWS V14.00,2013-01-18 11:43:00,
2013-01-18 06:49:00,1.6,-0.4,30.13,WNW,300,0.0,0.0,91,0.00,,,0.00,VWS V14.00,2013-01-18 11:49:00,
2013-01-18 06:55:00,1.4,-0.6,30.14,WNW,300,0.0,0.0,91,0.00,,,0.00,VWS V14.00,2013-01-18 11:55:00,
2013-01-18 07:01:00,1.2,-0.7,30.14,WNW,300,0.0,0.0,91,0.00,,,0.00,VWS V14.00,2013-01-18 12:01:00,
2013-01-18 07:07:00,1.1,-0.8,30.14,WNW,300,0.0,0.0,91,0.00,,,0.00,VWS V14.00,2013-01-18 12:07:00,
2013-01-18 07:13:00,1.1,-0.8,30.14,WNW,300,0.0,0.0,92,0.00,,,0.00,VWS V14.00,2013-01-18 12:13:00,
2013-01-18 07:19:00,0.6,-1.3,30.15,WNW,300,0.0,0.0,92,0.00,,,0.00,VWS V14.00,2013-01-18 12:19:00,
2013-01-18 07:25:00,0.4,-1.5,30.15,WNW,300,0.0,0.0,92,0.00,,,0.00,VWS V14.00,2013-01-18 12:25:00,
2013-01-18 07:31:00,0.7,-1.1,30.15,WNW,300,0.0,0.0,92,0.00,,,0.00,VWS V14.00,2013-01-18 12:31:00,
2013-01-18 07:37:00,0.5,-1.3,30.16,WNW,300,0.0,0.0,92,0.00,,,0.00,VWS V14.00,2013-01-18 12:37:00,
2013-01-18 07:43:00,0.5,-1.3,30.16,WNW,300,0.0,0.0,92,0.00,,,0.00,VWS V14.00,2013-01-18 12:43:00,
2013-01-18 07:49:00,0.4,-1.4,30.16,WNW,300,0.0,0.0,92,0.00,,,0.00,VWS V14.00,2013-01-18 12:49:00,
2013-01-18 07:55:00,0.4,-1.4,30.17,WNW,300,0.0,0.0,92,0.00,,,0.00,VWS V14.00,2013-01-18 12:55:00,
2013-01-18 08:01:00,0.4,-1.4,30.18,WNW,300,0.0,0.0,92,0.00,,,0.00,VWS V14.00,2013-01-18 13:01:00,
2013-01-18 08:07:00,0.6,-1.1,30.18,WNW,300,0.0,0.0,92,0.00,,,0.00,VWS V14.00,2013-01-18 13:07:00,
2013-01-18 08:13:00,0.7,-0.9,30.19,WNW,300,0.0,0.0,93,0.00,,,0.00,VWS V14.00,2013-01-18 13:13:00,
2013-01-18 08:19:00,1.1,-0.5,30.19,WNW,300,0.0,0.0,93,0.00,,,0.00,VWS V14.00,2013-01-18 13:19:00,
2013-01-18 08:25:00,1.4,-0.1,30.19,WNW,300,0.0,0.0,93,0.00,,,0.00,VWS V14.00,2013-01-18 13:25:00,
2013-01-18 08:31:00,1.6,0.1,30.19,WNW,300,0.0,0.0,93,0.00,,,0.00,VWS V14.00,2013-01-18 13:31:00,
2013-01-18 08:37:00,2.0,0.4,30.20,WNW,300,0.0,0.0,93,0.00,,,0.00,VWS V14.00,2013-01-18 13:37:00,
2013-01-18 08:43:00,2.5,0.9,30.20,WNW,300,0.0,0.0,93,0.00,,,0.00,VWS V14.00,2013-01-18 13:43:00,
2013-01-18 08:49:00,3.0,1.4,30.20,WNW,300,0.0,0.0,93,0.00,,,0.00,VWS V14.00,2013-01-18 13:49:00,
2013-01-18 08:55:00,3.4,1.7,30.20,WNW,300,0.0,0.0,92,0.00,,,0.00,VWS V14.00,2013-01-18 13:55:00,
2013-01-18 09:01:00,4.0,2.1,30.20,WNW,300,0.0,0.0,92,0.00,,,0.00,VWS V14.00,2013-01-18 14:01:00,
2013-01-18 09:07:00,4.3,2.1,30.21,WNW,300,0.0,0.0,90,0.00,,,0.00,VWS V14.00,2013-01-18 14:07:00,
2013-01-18 09:13:00,4.7,2.4,30.21,WNW,300,0.0,0.0,90,0.00,,,0.00,VWS V14.00,2013-01-18 14:13:00,
2013-01-18 09:19:00,5.1,2.4,30.21,WNW,300,0.0,0.0,88,0.00,,,0.00,VWS V14.00,2013-01-18 14:19:00,
2013-01-18 09:25:00,5.3,2.3,30.21,WNW,300,0.0,0.0,87,0.00,,,0.00,VWS V14.00,2013-01-18 14:25:00,
2013-01-18 09:31:00,5.6,2.4,30.21,WNW,300,0.0,0.0,86,0.00,,,0.00,VWS V14.00,2013-01-18 14:31:00,
2013-01-18 09:37:00,6.3,2.8,30.22,WNW,300,0.0,0.0,85,0.00,,,0.00,VWS V14.00,2013-01-18 14:37:00,
2013-01-18 09:43:00,6.9,3.0,30.22,WNW,300,0.0,0.0,84,0.00,,,0.00,VWS V14.00,2013-01-18 14:43:00,
2013-01-18 09:49:00,7.5,3.3,30.22,WNW,300,0.0,0.0,82,0.00,,,0.00,VWS V14.00,2013-01-18 14:49:00,
2013-01-18 09:55:00,8.2,3.6,30.22,WNW,300,0.0,0.0,81,0.00,,,0.00,VWS V14.00,2013-01-18 14:55:00,
2013-01-18 10:01:00,8.5,3.4,30.23,WNW,300,0.0,0.0,79,0.00,,,0.00,VWS V14.00,2013-01-18 15:01:00,
2013-01-18 10:07:00,8.6,2.9,30.23,WNW,300,0.0,0.0,77,0.00,,,0.00,VWS V14.00,2013-01-18 15:07:00,
2013-01-18 10:13:00,9.3,3.2,30.23,North,350,3.1,5.0,76,0.00,,,0.00,VWS V14.00,2013-01-18 15:13:00,
2013-01-18 10:19:00,9.9,3.5,30.22,North,350,0.0,5.0,75,0.00,,,0.00,VWS V14.00,2013-01-18 15:19:00,
2013-01-18 10:25:00,10.2,3.4,30.23,North,350,0.0,5.0,73,0.00,,,0.00,VWS V14.00,2013-01-18 15:25:00,
2013-01-18 10:31:00,10.4,3.2,30.23,North,350,0.0,5.0,72,0.00,,,0.00,VWS V14.00,2013-01-18 15:31:00,
2013-01-18 10:37:00,10.7,3.2,30.23,North,350,0.0,5.0,71,0.00,,,0.00,VWS V14.00,2013-01-18 15:37:00,
2013-01-18 10:43:00,10.9,2.9,30.23,NNW,346,0.0,5.0,70,0.00,,,0.00,VWS V14.00,2013-01-18 15:43:00,
2013-01-18 10:49:00,11.0,2.6,30.23,NNW,346,0.0,5.0,68,0.00,,,0.00,VWS V14.00,2013-01-18 15:49:00,
2013-01-18 10:56:00,11.2,2.4,30.22,NNW,338,0.0,6.5,67,0.00,,,0.00,VWS V14.00,2013-01-18 15:56:00,
2013-01-18 11:02:00,11.2,2.0,30.22,North,7,0.0,7.1,66,0.00,,,0.00,VWS V14.00,2013-01-18 16:02:00,
2013-01-18 11:08:00,11.2,1.7,30.21,North,7,0.0,7.1,65,0.00,,,0.00,VWS V14.00,2013-01-18 16:08:00,
2013-01-18 11:14:00,11.4,1.7,30.21,North,6,0.0,7.1,64,0.00,,,0.00,VWS V14.00,2013-01-18 16:14:00,
2013-01-18 11:20:00,11.6,1.8,30.20,NNE,27,0.0,7.8,64,0.00,,,0.00,VWS V14.00,2013-01-18 16:20:00,
2013-01-18 11:26:00,11.8,1.8,30.20,NNW,346,0.0,7.8,63,0.00,,,0.00,VWS V14.00,2013-01-18 16:26:00,
2013-01-18 11:32:00,11.9,1.7,30.20,NNW,330,7.1,7.8,63,0.00,,,0.00,VWS V14.00,2013-01-18 16:32:00,
2013-01-18 11:38:00,11.8,1.3,30.20,NNW,335,0.0,7.8,62,0.00,,,0.00,VWS V14.00,2013-01-18 16:38:00,
2013-01-18 11:44:00,12.0,1.4,30.20,NNW,335,0.0,7.8,62,0.00,,,0.00,VWS V14.00,2013-01-18 16:44:00,
2013-01-18 11:50:00,12.5,1.8,30.20,North,353,7.1,7.8,61,0.00,,,0.00,VWS V14.00,2013-01-18 16:50:00,
2013-01-18 11:56:00,12.7,1.7,30.20,NNW,338,6.6,10.1,61,0.00,,,0.00,VWS V14.00,2013-01-18 16:56:00,
2013-01-18 12:02:00,12.8,1.5,30.19,NW,307,0.0,10.1,60,0.00,,,0.00,VWS V14.00,2013-01-18 17:02:00,
2013-01-18 12:08:00,13.2,1.6,30.20,NNW,332,6.2,10.1,59,0.00,,,0.00,VWS V14.00,2013-01-18 17:08:00,
2013-01-18 12:14:00,13.5,1.8,30.20,NW,321,0.0,10.1,59,0.00,,,0.00,VWS V14.00,2013-01-18 17:14:00,
2013-01-18 12:20:00,13.8,1.9,30.20,NW,305,4.8,11.7,58,0.00,,,0.00,VWS V14.00,2013-01-18 17:20:00,
2013-01-18 12:26:00,14.1,1.8,30.19,NNW,329,0.0,11.7,57,0.00,,,0.00,VWS V14.00,2013-01-18 17:26:00,
2013-01-18 12:32:00,14.1,1.6,30.19,NNW,335,6.3,11.7,57,0.00,,,0.00,VWS V14.00,2013-01-18 17:32:00,
2013-01-18 12:38:00,14.2,1.7,30.19,NNW,330,0.0,11.7,57,0.00,,,0.00,VWS V14.00,2013-01-18 17:38:00,
2013-01-18 12:44:00,14.5,1.8,30.19,North,353,0.0,11.7,56,0.00,,,0.00,VWS V14.00,2013-01-18 17:44:00,
2013-01-18 12:50:00,15.0,2.1,30.19,NNE,24,0.0,11.7,56,0.00,,,0.00,VWS V14.00,2013-01-18 17:50:00,
2013-01-18 12:56:00,15.2,2.4,30.19,NNW,335,0.0,11.7,56,0.00,,,0.00,VWS V14.00,2013-01-18 17:56:00,
2013-01-18 13:02:00,15.6,2.5,30.19,NNW,339,0.0,11.7,56,0.00,,,0.00,VWS V14.00,2013-01-18 18:02:00,
2013-01-18 13:08:00,15.5,2.2,30.19,NNW,347,7.8,11.7,55,0.00,,,0.00,VWS V14.00,2013-01-18 18:08:00,
2013-01-18 13:14:00,15.7,2.1,30.19,NW,305,0.0,11.7,54,0.00,,,0.00,VWS V14.00,2013-01-18 18:14:00,
2013-01-18 13:20:00,15.9,2.4,30.20,North,350,0.0,11.7,54,0.00,,,0.00,VWS V14.00,2013-01-18 18:20:00,
2013-01-18 13:26:00,16.2,2.5,30.20,NNW,338,5.5,11.7,54,0.00,,,0.00,VWS V14.00,2013-01-18 18:26:00,
2013-01-18 13:32:00,16.4,2.5,30.20,North,350,0.0,11.7,54,0.00,,,0.00,VWS V14.00,2013-01-18 18:32:00,
2013-01-18 13:38:00,17.0,2.9,30.20,NNW,347,7.0,11.7,53,0.00,,,0.00,VWS V14.00,2013-01-18 18:38:00,
2013-01-18 13:44:00,17.2,2.8,30.20,NNW,345,6.1,12.6,52,0.00,,,0.00,VWS V14.00,2013-01-18 18:44:00,
2013-01-18 13:50:00,17.5,2.7,30.20,North,350,8.3,12.6,52,0.00,,,0.00,VWS V14.00,2013-01-18 18:50:00,
2013-01-18 13:56:00,17.5,2.3,30.20,North,349,4.8,15.3,51,0.00,,,0.00,VWS V14.00,2013-01-18 18:56:00,
2013-01-18 14:02:00,18.0,2.4,30.20,North,352,12.3,15.3,50,0.00,,,0.00,VWS V14.00,2013-01-18 19:02:00,
2013-01-18 14:08:00,18.0,1.9,30.20,NNW,345,6.5,15.3,49,0.00,,,0.00,VWS V14.00,2013-01-18 19:08:00,
2013-01-18 14:14:00,18.0,1.5,30.20,NW,318,7.0,15.3,48,0.00,,,0.00,VWS V14.00,2013-01-18 19:14:00,
2013-01-18 14:20:00,18.0,1.1,30.20,NNW,338,6.0,15.3,47,0.00,,,0.00,VWS V14.00,2013-01-18 19:20:00,
2013-01-18 14:27:00,18.3,1.2,30.20,NW,326,11.4,15.3,46,0.00,,,0.00,VWS V14.00,2013-01-18 19:27:00,
2013-01-18 14:33:00,18.1,0.7,30.20,NNW,328,10.7,15.3,46,0.00,,,0.00,VWS V14.00,2013-01-18 19:33:00,
2013-01-18 14:39:00,18.3,0.6,30.20,NNW,342,8.9,15.3,45,0.00,,,0.00,VWS V14.00,2013-01-18 19:39:00,
2013-01-18 14:45:00,18.5,0.5,30.20,NNW,335,6.7,15.3,45,0.00,,,0.00,VWS V14.00,2013-01-18 19:45:00,
2013-01-18 14:51:00,18.5,0.2,30.20,North,350,8.6,15.3,44,0.00,,,0.00,VWS V14.00,2013-01-18 19:51:00,
2013-01-18 14:57:00,18.5,-0.1,30.20,NNW,332,8.5,15.3,43,0.00,,,0.00,VWS V14.00,2013-01-18 19:57:00,
2013-01-18 15:03:00,18.5,-0.3,30.20,WNW,288,0.0,15.3,43,0.00,,,0.00,VWS V14.00,2013-01-18 20:03:00,
2013-01-18 15:09:00,18.7,-0.4,30.20,NW,326,8.8,15.3,42,0.00,,,0.00,VWS V14.00,2013-01-18 20:09:00,
2013-01-18 15:15:00,18.7,-0.8,30.20,NNW,329,8.9,15.3,42,0.00,,,0.00,VWS V14.00,2013-01-18 20:15:00,
2013-01-18 15:21:00,18.4,-1.2,30.20,NNW,339,7.5,15.3,41,0.00,,,0.00,VWS V14.00,2013-01-18 20:21:00,
2013-01-18 15:27:00,18.6,-1.1,30.20,NNW,332,7.2,15.3,41,0.00,,,0.00,VWS V14.00,2013-01-18 20:27:00,
2013-01-18 15:33:00,18.5,-1.1,30.20,North,349,9.4,15.3,41,0.00,,,0.00,VWS V14.00,2013-01-18 20:33:00,
2013-01-18 15:39:00,18.5,-1.1,30.20,NNW,345,0.0,15.3,41,0.00,,,0.00,VWS V14.00,2013-01-18 20:39:00,
2013-01-18 15:45:00,18.4,-1.0,30.20,NNW,340,0.0,15.3,42,0.00,,,0.00,VWS V14.00,2013-01-18 20:45:00,
2013-01-18 15:51:00,18.4,-1.0,30.20,NNW,346,6.3,15.3,42,0.00,,,0.00,VWS V14.00,2013-01-18 20:51:00,
2013-01-18 15:57:00,18.2,-1.3,30.20,NNW,343,7.2,15.3,41,0.00,,,0.00,VWS V14.00,2013-01-18 20:57:00,
2013-01-18 16:03:00,18.1,-1.5,30.20,NNW,335,0.0,15.3,41,0.00,,,0.00,VWS V14.00,2013-01-18 21:03:00,
2013-01-18 16:09:00,18.0,-1.6,30.20,NNW,332,0.0,15.3,41,0.00,,,0.00,VWS V14.00,2013-01-18 21:09:00,
2013-01-18 16:15:00,17.8,-1.7,30.21,NNW,339,3.4,15.3,41,0.00,,,0.00,VWS V14.00,2013-01-18 21:15:00,
2013-01-18 16:21:00,17.5,-2.0,30.21,NNW,330,0.0,15.3,41,0.00,,,0.00,VWS V14.00,2013-01-18 21:21:00,
2013-01-18 16:27:00,17.5,-2.0,30.21,NNW,330,0.0,15.3,41,0.00,,,0.00,VWS V14.00,2013-01-18 21:27:00,
2013-01-18 16:33:00,17.4,-2.0,30.21,NNW,336,0.0,15.3,42,0.00,,,0.00,VWS V14.00,2013-01-18 21:33:00,
2013-01-18 16:39:00,17.2,-1.7,30.21,NNW,336,0.0,15.3,42,0.00,,,0.00,VWS V14.00,2013-01-18 21:39:00,
2013-01-18 16:45:00,16.8,-1.8,30.22,North,357,4.9,15.3,43,0.00,,,0.00,VWS V14.00,2013-01-18 21:45:00,
2013-01-18 16:51:00,16.5,-1.8,30.22,North,354,0.0,15.3,44,0.00,,,0.00,VWS V14.00,2013-01-18 21:51:00,
2013-01-18 16:57:00,16.3,-1.6,30.22,North,354,0.0,15.3,44,0.00,,,0.00,VWS V14.00,2013-01-18 21:57:00,
2013-01-18 17:03:00,15.9,-1.6,30.22,North,356,0.0,15.3,45,0.00,,,0.00,VWS V14.00,2013-01-18 22:03:00,
2013-01-18 17:09:00,15.7,-1.4,30.22,North,356,0.0,15.3,46,0.00,,,0.00,VWS V14.00,2013-01-18 22:09:00,
2013-01-18 17:15:00,15.7,-1.2,30.23,North,356,0.0,15.3,46,0.00,,,0.00,VWS V14.00,2013-01-18 22:15:00,
2013-01-18 17:21:00,15.5,-1.2,30.23,North,356,0.0,15.3,47,0.00,,,0.00,VWS V14.00,2013-01-18 22:21:00,
2013-01-18 17:27:00,15.5,-1.0,30.22,North,356,0.0,15.3,47,0.00,,,0.00,VWS V14.00,2013-01-18 22:27:00,
2013-01-18 17:33:00,15.1,-1.1,30.22,North,356,0.0,15.3,48,0.00,,,0.00,VWS V14.00,2013-01-18 22:33:00,
2013-01-18 17:39:00,14.9,-1.1,30.22,North,356,0.0,15.3,48,0.00,,,0.00,VWS V14.00,2013-01-18 22:39:00,
2013-01-18 17:45:00,14.8,-0.9,30.22,North,356,0.0,15.3,49,0.00,,,0.00,VWS V14.00,2013-01-18 22:45:00,
2013-01-18 17:51:00,14.8,-0.6,30.23,North,356,0.0,15.3,50,0.00,,,0.00,VWS V14.00,2013-01-18 22:51:00,
2013-01-18 17:57:00,14.6,-0.3,30.23,North,356,0.0,15.3,51,0.00,,,0.00,VWS V14.00,2013-01-18 22:57:00,
2013-01-18 18:03:00,14.5,0.1,30.23,North,356,0.0,15.3,52,0.00,,,0.00,VWS V14.00,2013-01-18 23:03:00,
2013-01-18 18:10:00,14.3,0.5,30.22,North,356,0.0,15.3,53,0.00,,,0.00,VWS V14.00,2013-01-18 23:10:00,
2013-01-18 18:16:00,14.3,1.0,30.22,North,356,0.0,15.3,55,0.00,,,0.00,VWS V14.00,2013-01-18 23:16:00,
2013-01-18 18:22:00,14.2,1.4,30.22,North,356,0.0,15.3,56,0.00,,,0.00,VWS V14.00,2013-01-18 23:22:00,
2013-01-18 18:28:00,14.1,1.8,30.22,NE,45,0.0,15.3,57,0.00,,,0.00,VWS V14.00,2013-01-18 23:28:00,
2013-01-18 18:34:00,13.9,2.1,30.22,North,3,0.0,15.3,59,0.00,,,0.00,VWS V14.00,2013-01-18 23:34:00,
2013-01-18 18:40:00,13.9,2.5,30.22,North,3,0.0,15.3,60,0.00,,,0.00,VWS V14.00,2013-01-18 23:40:00,
2013-01-18 18:46:00,14.0,3.0,30.23,North,3,0.0,15.3,61,0.00,,,0.00,VWS V14.00,2013-01-18 23:46:00,
2013-01-18 18:52:00,14.0,3.2,30.23,North,0,0.0,15.3,62,0.00,,,0.00,VWS V14.00,2013-01-18 23:52:00,
2013-01-18 18:58:00,13.8,3.3,30.23,North,0,0.0,15.3,62,0.00,,,0.00,VWS V14.00,2013-01-18 23:58:00,
2013-01-18 19:04:00,13.9,3.6,30.23,North,8,0.0,15.3,63,0.00,,,0.00,VWS V14.00,2013-01-19 00:04:00,
2013-01-18 19:10:00,13.8,3.7,30.23,North,8,0.0,15.3,64,0.00,,,0.00,VWS V14.00,2013-01-19 00:10:00,
2013-01-18 19:16:00,13.8,3.9,30.23,North,4,0.0,15.3,64,0.00,,,0.00,VWS V14.00,2013-01-19 00:16:00,
2013-01-18 19:22:00,13.8,4.1,30.23,North,4,0.0,15.3,65,0.00,,,0.00,VWS V14.00,2013-01-19 00:22:00,
2013-01-18 19:28:00,13.7,4.2,30.23,North,4,0.0,15.3,65,0.00,,,0.00,VWS V14.00,2013-01-19 00:28:00,
2013-01-18 19:34:00,13.6,4.3,30.23,North,4,0.0,15.3,66,0.00,,,0.00,VWS V14.00,2013-01-19 00:34:00,
2013-01-18 19:40:00,13.5,4.4,30.23,North,4,0.0,15.3,66,0.00,,,0.00,VWS V14.00,2013-01-19 00:40:00,
2013-01-18 19:46:00,13.6,4.6,30.23,North,4,0.0,15.3,67,0.00,,,0.00,VWS V14.00,2013-01-19 00:46:00,
2013-01-18 19:52:00,13.6,4.8,30.23,North,3,0.0,15.3,67,0.00,,,0.00,VWS V14.00,2013-01-19 00:52:00,
2013-01-18 19:58:00,13.5,4.9,30.23,North,3,0.0,15.3,68,0.00,,,0.00,VWS V14.00,2013-01-19 00:58:00,
2013-01-18 20:04:00,13.6,5.2,30.23,North,3,0.0,15.3,68,0.00,,,0.00,VWS V14.00,2013-01-19 01:04:00,
2013-01-18 20:10:00,13.5,5.2,30.23,North,3,0.0,15.3,69,0.00,,,0.00,VWS V14.00,2013-01-19 01:10:00,
2013-01-18 20:16:00,13.6,5.4,30.22,North,3,0.0,15.3,69,0.00,,,0.00,VWS V14.00,2013-01-19 01:16:00,
2013-01-18 20:22:00,13.6,5.4,30.22,North,3,0.0,15.3,69,0.00,,,0.00,VWS V14.00,2013-01-19 01:22:00,
2013-01-18 20:28:00,13.5,5.4,30.23,North,3,0.0,15.3,69,0.00,,,0.00,VWS V14.00,2013-01-19 01:28:00,
2013-01-18 20:34:00,13.3,5.2,30.22,North,3,0.0,15.3,70,0.00,,,0.00,VWS V14.00,2013-01-19 01:34:00,
2013-01-18 20:40:00,13.3,5.3,30.22,North,3,0.0,15.3,70,0.00,,,0.00,VWS V14.00,2013-01-19 01:40:00,
2013-01-18 20:46:00,13.3,5.4,30.22,North,3,0.0,15.3,70,0.00,,,0.00,VWS V14.00,2013-01-19 01:46:00,
2013-01-18 20:52:00,13.1,5.3,30.22,North,3,0.0,15.3,70,0.00,,,0.00,VWS V14.00,2013-01-19 01:52:00,
2013-01-18 20:58:00,13.3,5.6,30.22,North,3,0.0,15.3,71,0.00,,,0.00,VWS V14.00,2013-01-19 01:58:00,
2013-01-18 21:04:00,13.6,6.1,30.22,North,3,0.0,15.3,71,0.00,,,0.00,VWS V14.00,2013-01-19 02:04:00,
2013-01-18 21:10:00,13.9,6.3,30.22,North,3,0.0,15.3,71,0.00,,,0.00,VWS V14.00,2013-01-19 02:10:00,
2013-01-18 21:16:00,14.1,6.6,30.22,North,3,0.0,15.3,71,0.00,,,0.00,VWS V14.00,2013-01-19 02:16:00,
2013-01-18 21:22:00,14.0,6.5,30.21,North,3,0.0,15.3,72,0.00,,,0.00,VWS V14.00,2013-01-19 02:22:00,
2013-01-18 21:28:00,14.3,6.8,30.21,North,3,0.0,15.3,72,0.00,,,0.00,VWS V14.00,2013-01-19 02:28:00,
2013-01-18 21:34:00,14.1,6.6,30.21,North,3,0.0,15.3,72,0.00,,,0.00,VWS V14.00,2013-01-19 02:34:00,
2013-01-18 21:40:00,14.2,6.7,30.20,North,3,0.0,15.3,71,0.00,,,0.00,VWS V14.00,2013-01-19 02:40:00,
2013-01-18 21:46:00,14.5,7.0,30.20,North,3,0.0,15.3,72,0.00,,,0.00,VWS V14.00,2013-01-19 02:46:00,
2013-01-18 21:53:00,14.5,7.1,30.20,North,3,0.0,15.3,72,0.00,,,0.00,VWS V14.00,2013-01-19 02:53:00,
2013-01-18 21:59:00,14.5,7.2,30.20,North,3,0.0,15.3,72,0.00,,,0.00,VWS V14.00,2013-01-19 02:59:00,
2013-01-18 22:05:00,14.7,7.6,30.19,North,3,0.0,15.3,73,0.00,,,0.00,VWS V14.00,2013-01-19 03:05:00,
2013-01-18 22:11:00,15.2,8.2,30.19,North,3,0.0,15.3,73,0.00,,,0.00,VWS V14.00,2013-01-19 03:11:00,
2013-01-18 22:17:00,15.0,8.1,30.19,North,3,0.0,15.3,74,0.00,,,0.00,VWS V14.00,2013-01-19 03:17:00,
2013-01-18 22:23:00,15.2,8.3,30.19,North,3,0.0,15.3,74,0.00,,,0.00,VWS V14.00,2013-01-19 03:23:00,
2013-01-18 22:29:00,15.6,8.6,30.19,North,3,0.0,15.3,73,0.00,,,0.00,VWS V14.00,2013-01-19 03:29:00,
2013-01-18 22:35:00,15.9,8.9,30.18,North,3,0.0,15.3,73,0.00,,,0.00,VWS V14.00,2013-01-19 03:35:00,
2013-01-18 22:41:00,16.0,8.9,30.18,North,3,0.0,15.3,73,0.00,,,0.00,VWS V14.00,2013-01-19 03:41:00,
2013-01-18 22:47:00,16.2,9.0,30.17,North,3,0.0,15.3,73,0.00,,,0.00,VWS V14.00,2013-01-19 03:47:00,
2013-01-18 22:53:00,16.4,9.1,30.16,North,3,0.0,15.3,72,0.00,,,0.00,VWS V14.00,2013-01-19 03:53:00,
2013-01-18 22:59:00,16.5,9.2,30.16,NW,325,0.0,15.3,72,0.00,,,0.00,VWS V14.00,2013-01-19 03:59:00,
2013-01-18 23:05:00,16.8,9.3,30.15,NW,325,0.0,15.3,72,0.00,,,0.00,VWS V14.00,2013-01-19 04:05:00,
2013-01-18 23:11:00,16.7,9.1,30.15,NW,325,0.0,15.3,72,0.00,,,0.00,VWS V14.00,2013-01-19 04:11:00,
2013-01-18 23:17:00,16.8,9.2,30.15,NNW,329,0.0,15.3,71,0.00,,,0.00,VWS V14.00,2013-01-19 04:17:00,
2013-01-18 23:23:00,17.1,9.3,30.15,NNW,329,0.0,15.3,71,0.00,,,0.00,VWS V14.00,2013-01-19 04:23:00,
2013-01-18 23:29:00,17.3,9.4,30.15,NNW,329,0.0,15.3,70,0.00,,,0.00,VWS V14.00,2013-01-19 04:29:00,
2013-01-18 23:35:00,17.3,9.4,30.14,NNW,329,0.0,15.3,71,0.00,,,0.00,VWS V14.00,2013-01-19 04:35:00,
2013-01-18 23:41:00,17.4,9.4,30.14,NNW,329,0.0,15.3,70,0.00,,,0.00,VWS V14.00,2013-01-19 04:41:00,
2013-01-18 23:47:00,17.7,9.5,30.14,North,350,0.0,15.3,70,0.00,,,0.00,VWS V14.00,2013-01-19 04:47:00,
2013-01-18 23:53:00,17.8,9.4,30.14,North,350,0.0,0.0,69,0.00,,,0.00,VWS V14.00,2013-01-19 04:53:00,
2013-01-18 23:59:00,18.0,9.4,30.14,North,359,0.0,9.1,68,0.00,,,0.00,VWS V14.00,2013-01-19 04:59:00,